Date Time,Air Temp,Sky Temp,Clarity,Light Level,Rain Sensor,Readings
2020-02-20 00:00:03,16.1,3.5,12.6,0.0,3.1,111
2020-02-20 00:05:03,16.1,3.3,12.8,0.0,3.0,111
2020-02-20 00:10:03,16.1,3.7,12.4,0.0,3.1,112
2020-02-20 00:15:03,16.1,3.4,12.7,0.0,2.9,111
2020-02-20 00:20:03,16.2,3.8,12.4,0.0,2.8,112
2020-02-20 00:25:03,16.3,3.9,12.4,0.0,2.8,111
2020-02-20 00:30:03,16.3,3.6,12.7,0.0,3.0,111
2020-02-20 00:35:03,16.4,3.7,12.7,0.0,3.0,111
2020-02-20 00:40:03,16.4,3.6,12.8,0.0,2.9,112
2020-02-20 00:45:03,16.4,3.7,12.7,0.0,3.1,111
2020-02-20 00:50:03,16.3,3.4,12.9,0.0,3.1,112
2020-02-20 00:55:03,16.3,3.3,13.0,0.0,3.1,111
2020-02-20 01:00:03,16.3,2.2,14.0,0.0,9.8,111
2020-02-20 01:05:03,15.6,3.6,12.1,0.0,18.0,111
2020-02-20 01:10:03,15.6,4.3,11.3,0.0,8.5,112
2020-02-20 01:15:03,15.7,4.2,11.4,0.0,2.7,111
2020-02-20 01:20:03,15.8,3.9,11.9,0.0,2.6,111
2020-02-20 01:25:03,16.0,3.7,12.3,0.0,2.8,112
2020-02-20 01:30:03,16.1,3.1,13.0,0.0,2.9,111
2020-02-20 01:35:03,16.2,3.0,13.1,0.0,2.7,111
2020-02-20 01:40:03,16.2,3.1,13.1,0.0,2.7,111
2020-02-20 01:45:03,16.2,2.7,13.5,0.0,2.7,111
2020-02-20 01:50:03,16.2,1.6,14.7,0.0,2.7,111
2020-02-20 01:55:03,16.2,2.7,13.5,0.0,2.7,111
2020-02-20 02:00:03,16.2,3.5,12.7,0.0,2.7,112
2020-02-20 02:05:03,16.2,2.9,13.3,0.0,3.6,111
2020-02-20 02:10:03,16.1,3.3,12.8,0.0,2.8,111
2020-02-20 02:15:03,16.0,3.4,12.6,0.0,2.8,112
2020-02-20 02:20:03,16.0,3.6,12.4,0.0,6.6,111
2020-02-20 02:25:03,15.7,2.8,12.9,0.0,16.3,111
2020-02-20 02:30:03,15.6,4.5,11.1,0.0,13.1,111
2020-02-20 02:35:03,15.5,5.8,9.7,0.0,13.4,112
2020-02-20 02:40:03,15.6,6.3,9.3,0.0,17.6,111
2020-02-20 02:45:03,15.3,4.3,11.0,0.0,25.2,111
2020-02-20 02:50:03,15.3,4.4,10.9,0.0,4.6,112
2020-02-20 02:55:03,15.6,3.0,12.5,0.0,4.0,111
2020-02-20 03:00:03,15.6,3.7,11.9,0.0,2.7,112
2020-02-20 03:05:03,15.7,1.4,14.3,0.0,6.7,111
2020-02-20 03:10:03,15.3,2.3,13.0,0.0,12.2,111
2020-02-20 03:15:03,15.3,2.3,13.0,0.0,4.1,110
2020-02-20 03:20:03,15.4,2.8,12.7,0.0,2.8,111
2020-02-20 03:25:03,15.5,2.9,12.7,0.0,2.7,112
2020-02-20 03:30:03,15.7,1.9,13.8,0.0,2.7,111
2020-02-20 03:35:03,15.7,3.2,12.6,0.0,2.6,111
2020-02-20 03:40:03,15.8,2.0,13.9,0.0,2.4,111
2020-02-20 03:45:03,15.9,0.9,15.0,0.0,2.4,111
2020-02-20 03:50:03,15.9,2.2,13.7,0.0,2.4,111
2020-02-20 03:55:03,16.0,3.1,12.9,0.0,2.5,112
2020-02-20 04:00:03,16.0,2.2,13.9,0.0,6.2,111
2020-02-20 04:05:03,15.8,2.6,13.2,0.0,3.2,112
2020-02-20 04:10:03,15.8,3.3,12.4,0.0,3.1,111
2020-02-20 04:15:03,15.8,2.9,12.9,0.0,3.1,111
2020-02-20 04:20:03,15.8,2.8,13.0,0.0,2.9,112
2020-02-20 04:25:03,15.9,2.9,13.0,0.0,2.8,111
2020-02-20 04:30:03,16.0,2.5,13.4,0.0,2.8,111
2020-02-20 04:35:03,16.0,3.0,13.0,0.0,4.1,111
2020-02-20 04:40:03,15.7,2.8,12.9,0.0,12.9,111
2020-02-20 04:45:03,15.5,3.5,12.0,0.0,12.3,111
2020-02-20 04:50:03,15.5,3.2,12.3,0.0,5.0,111
2020-02-20 04:55:03,15.3,3.6,11.7,0.0,20.6,112
2020-02-20 05:00:03,15.2,3.0,12.3,0.0,2.6,111
2020-02-20 05:05:03,15.6,3.6,12.0,0.0,2.3,111
2020-02-20 05:10:03,15.8,3.3,12.5,0.0,2.5,112
2020-02-20 05:15:03,15.9,3.2,12.8,0.0,2.6,111
2020-02-20 05:20:03,16.0,3.0,13.1,0.0,2.5,111
2020-02-20 05:25:03,16.1,3.2,12.9,0.0,2.6,111
2020-02-20 05:30:03,16.1,3.5,12.7,0.0,2.9,111
2020-02-20 05:35:03,16.1,2.7,13.4,0.0,3.5,112
2020-02-20 05:40:03,16.0,3.7,12.2,0.0,2.7,111
2020-02-20 05:45:03,16.0,3.0,13.0,0.0,3.0,112
2020-02-20 05:50:03,16.3,3.2,13.0,0.0,2.7,111
2020-02-20 05:55:03,15.9,2.7,13.3,0.0,5.0,111
2020-02-20 06:00:03,15.9,3.6,12.3,0.0,2.6,111
2020-02-20 06:05:04,15.9,3.8,12.0,0.0,3.0,51
2020-02-20 06:10:04,15.9,3.4,12.5,0.0,2.8,111
2020-02-20 06:15:04,16.0,3.4,12.6,0.0,3.2,112
2020-02-20 06:20:04,16.0,2.9,13.0,0.2,3.1,111
2020-02-20 06:25:04,15.9,1.2,14.6,0.4,10.8,111
2020-02-20 06:30:04,15.2,2.3,12.9,0.9,10.2,112
2020-02-20 06:35:04,15.3,3.0,12.3,1.6,14.9,111
2020-02-20 06:40:04,14.7,5.5,9.2,3.7,27.8,111
2020-02-20 06:45:04,14.5,5.8,8.7,7.0,25.4,111
2020-02-20 06:50:04,14.5,5.9,8.6,11.8,12.2,112
2020-02-20 06:55:04,14.7,5.4,9.3,16.2,21.6,112
2020-02-20 07:00:04,14.3,5.6,8.7,22.1,22.0,111
2020-02-20 07:05:04,14.5,5.7,8.8,25.8,8.2,112
2020-02-20 07:10:04,15.0,4.7,10.3,27.5,6.8,111
2020-02-20 07:15:04,15.3,2.9,12.3,27.9,2.8,112
2020-02-20 07:20:04,15.6,2.7,12.9,29.2,3.8,111
2020-02-20 07:25:04,15.7,2.0,13.7,30.0,8.3,111
2020-02-20 07:30:04,15.3,3.3,12.0,30.5,22.4,111
2020-02-20 07:35:04,15.0,3.7,11.2,31.0,16.3,111
2020-02-20 07:40:04,15.0,2.9,12.1,31.0,13.6,112
2020-02-20 07:45:04,14.9,3.5,11.4,31.0,17.1,111
2020-02-20 07:50:04,14.9,5.3,9.7,31.2,9.1,112
2020-02-20 07:55:04,15.3,4.1,11.2,31.6,5.4,111
2020-02-20 08:00:04,15.6,2.4,13.2,31.6,4.3,111
2020-02-20 08:05:04,15.6,2.2,13.4,31.5,9.0,111
2020-02-20 08:10:04,15.5,2.9,12.6,31.5,5.8,111
2020-02-20 08:15:04,15.6,3.3,12.3,31.8,7.8,111
2020-02-20 08:20:04,15.6,3.0,12.6,31.9,12.0,111
2020-02-20 08:25:04,15.4,2.7,12.7,32.0,12.0,111
2020-02-20 08:30:04,15.3,2.8,12.5,32.0,10.5,112
2020-02-20 08:35:04,15.3,1.9,13.4,32.0,10.4,110
2020-02-20 08:40:04,15.0,3.2,11.8,32.2,19.7,112
2020-02-20 08:45:04,15.2,3.1,12.1,32.3,2.9,111
2020-02-20 08:50:04,15.7,3.4,12.3,32.2,2.4,112
2020-02-20 08:55:04,16.2,3.3,12.9,32.1,2.4,111
2020-02-20 09:00:04,16.4,3.2,13.2,32.2,2.3,111
2020-02-20 09:05:04,16.5,3.3,13.2,32.2,2.2,111
2020-02-20 09:10:04,16.6,3.6,13.0,32.2,2.3,111
2020-02-20 09:15:04,16.8,3.3,13.5,32.3,2.3,112
2020-02-20 09:20:04,16.9,3.7,13.2,32.2,2.3,111
2020-02-20 09:25:04,16.9,3.6,13.3,32.0,2.4,111
2020-02-20 09:30:04,16.8,3.3,13.6,32.0,2.8,111
2020-02-20 09:35:04,16.6,2.0,14.6,32.1,6.0,111
2020-02-20 09:40:04,16.3,2.6,13.6,32.2,3.8,111
2020-02-20 09:45:04,16.2,3.4,12.8,32.0,2.8,111
2020-02-20 09:50:04,16.3,3.6,12.6,31.8,2.7,112
2020-02-20 09:55:04,16.5,3.4,13.1,31.9,2.5,111
2020-02-20 10:00:04,16.6,3.3,13.3,32.2,2.3,111
2020-02-20 10:05:04,16.8,3.5,13.3,32.2,2.6,112
2020-02-20 10:10:04,16.7,1.9,14.9,32.2,7.9,111
2020-02-20 10:15:04,16.0,2.6,13.4,32.2,19.8,111
2020-02-20 10:20:04,15.4,4.1,11.3,32.3,11.2,112
2020-02-20 10:25:04,15.9,2.3,13.6,32.3,7.6,111
2020-02-20 10:30:04,15.9,2.6,13.3,32.2,12.2,111
2020-02-20 10:35:04,16.2,3.0,13.2,32.3,7.3,111
2020-02-20 10:40:04,15.9,2.6,13.3,32.3,14.4,111
2020-02-20 10:45:04,15.5,4.1,11.4,32.4,22.0,112
2020-02-20 10:50:04,15.2,4.1,11.1,32.3,24.1,111
2020-02-20 10:55:04,15.0,4.8,10.2,32.3,23.4,112
2020-02-20 11:00:04,15.0,5.5,9.6,32.3,21.3,111
2020-02-20 11:05:04,15.0,6.2,8.8,32.3,18.6,112
2020-02-20 11:10:04,15.0,5.4,9.6,32.2,16.0,111
2020-02-20 11:15:04,15.1,6.0,9.1,32.3,17.5,112
2020-02-20 11:20:04,15.0,5.7,9.2,32.3,30.6,112
2020-02-20 11:25:04,14.8,3.4,11.4,32.3,28.3,111
2020-02-20 11:30:04,14.6,5.0,9.7,32.2,26.6,111
2020-02-20 11:35:04,14.7,5.7,9.0,32.2,22.7,112
2020-02-20 11:40:04,14.9,4.3,10.5,32.1,19.3,111
2020-02-20 11:45:04,14.9,4.8,10.1,32.2,30.8,112
2020-02-20 11:50:04,14.7,4.1,10.6,32.2,32.5,112
2020-02-20 11:55:04,14.7,5.6,9.1,32.2,22.6,111
2020-02-20 12:00:04,15.0,5.5,9.4,32.2,12.4,112
2020-02-20 12:05:04,15.1,5.5,9.6,32.2,20.4,111
2020-02-20 12:10:04,15.0,4.8,10.2,32.2,23.4,112
2020-02-20 12:15:04,15.0,4.6,10.5,32.2,23.1,112
2020-02-20 12:20:04,15.1,4.5,10.6,32.2,21.6,111
2020-02-20 12:25:04,15.2,4.2,11.0,32.2,21.9,111
2020-02-20 12:30:04,15.2,4.3,10.9,32.1,22.0,112
2020-02-20 12:35:04,15.1,4.4,10.6,32.1,25.5,112
2020-02-20 12:40:04,15.2,3.7,11.5,32.2,14.4,111
2020-02-20 12:45:04,15.6,3.0,12.6,32.2,10.9,111
2020-02-20 12:50:04,16.0,2.9,13.1,32.2,8.7,112
2020-02-20 12:55:04,16.3,3.7,12.5,32.3,14.4,111
2020-02-20 13:00:04,16.0,4.6,11.4,32.2,16.7,112
2020-02-20 13:05:04,15.9,4.9,11.0,32.2,14.0,111
2020-02-20 13:10:04,16.1,3.8,12.2,32.3,14.3,111
2020-02-20 13:15:04,16.2,3.1,13.1,32.3,14.4,111
2020-02-20 13:20:04,16.1,1.0,15.0,32.3,11.9,111
2020-02-20 13:25:04,15.6,1.4,14.2,32.1,9.8,111
2020-02-20 13:30:04,15.1,0.2,14.8,32.2,12.2,112
2020-02-20 13:35:04,14.5,-0.9,15.4,32.3,10.2,111
2020-02-20 13:40:04,14.5,1.1,13.4,32.3,9.1,112
2020-02-20 13:45:04,14.5,1.8,12.7,32.3,9.3,110
2020-02-20 13:50:04,14.1,1.0,13.1,32.2,8.6,112
2020-02-20 13:55:04,14.4,1.7,12.7,32.1,11.0,111
2020-02-20 14:00:04,14.3,-0.1,14.4,32.2,17.0,111
2020-02-20 14:05:04,13.6,-0.9,14.4,32.1,14.5,112
2020-02-20 14:10:04,13.5,-2.1,15.6,32.2,8.6,112
2020-02-20 14:15:04,13.1,-2.4,15.5,32.1,11.4,111
2020-02-20 14:20:04,12.8,-0.6,13.4,32.1,9.4,111
2020-02-20 14:25:04,12.8,-0.9,13.7,32.1,9.6,112
2020-02-20 14:30:04,12.9,-2.6,15.5,32.2,5.5,112
2020-02-20 14:35:04,12.9,-3.8,16.7,32.3,4.2,112
2020-02-20 14:40:04,12.8,-2.6,15.4,32.3,2.1,111
2020-02-20 14:45:04,13.1,-2.9,16.0,32.5,2.2,112
2020-02-20 14:50:04,13.6,-5.1,18.7,32.5,2.3,111
2020-02-20 14:55:04,13.9,-4.6,18.5,32.4,2.4,111
2020-02-20 15:00:04,14.0,-4.7,18.7,32.4,2.3,112
2020-02-20 15:05:04,15.8,-6.9,22.7,32.5,2.3,111
2020-02-20 15:10:04,17.7,-7.1,24.8,32.5,2.3,112
2020-02-20 15:15:04,18.2,-6.4,24.5,32.4,2.3,111
2020-02-20 15:20:04,18.4,-7.2,25.6,32.5,2.3,112
2020-02-20 15:25:04,18.6,-8.8,27.4,32.5,2.3,111
2020-02-20 15:30:04,18.9,-8.3,27.2,32.6,2.3,112
2020-02-20 15:35:04,19.8,-12.4,32.3,32.6,2.2,111
2020-02-20 15:40:04,20.4,-14.8,35.2,32.6,2.4,112
2020-02-20 15:45:04,20.3,-16.7,37.0,32.6,2.3,111
2020-02-20 15:50:04,19.5,-16.9,36.4,32.4,2.4,111
2020-02-20 15:55:04,19.0,-16.3,35.3,32.5,2.3,112
2020-02-20 16:00:04,19.2,-16.1,35.3,32.6,2.1,111
2020-02-20 16:05:04,19.5,-16.8,36.3,32.6,2.3,112
2020-02-20 16:10:04,19.8,-17.8,37.6,32.6,2.3,112
2020-02-20 16:15:04,20.0,-17.5,37.6,32.6,2.3,111
2020-02-20 16:20:04,19.9,-18.3,38.2,32.6,2.3,112
2020-02-20 16:25:04,19.2,-18.4,37.6,32.6,2.3,111
2020-02-20 16:30:04,19.0,-20.5,39.4,32.4,2.1,112
2020-02-20 16:35:04,18.2,-19.9,38.0,32.3,2.2,112
2020-02-20 16:40:04,17.7,-13.5,31.2,32.4,2.3,111
2020-02-20 16:45:04,17.8,-11.8,29.6,32.5,2.3,111
2020-02-20 16:50:04,18.0,-20.8,38.8,32.5,2.3,112
2020-02-20 16:55:04,17.9,-20.4,38.3,32.5,2.3,111
2020-02-20 17:00:04,17.8,-20.1,37.9,32.4,2.2,112
2020-02-20 17:05:04,17.7,-20.1,37.8,32.4,2.3,112
2020-02-20 17:10:04,17.5,-20.5,38.0,32.3,2.3,111
2020-02-20 17:15:04,17.2,-21.2,38.4,32.3,2.3,112
2020-02-20 17:20:04,17.4,-21.7,39.0,32.1,2.3,111
2020-02-20 17:25:04,17.2,-22.0,39.3,31.7,2.3,112
2020-02-20 17:30:04,17.1,-21.8,38.9,31.2,2.3,112
2020-02-20 17:35:04,17.0,-21.6,38.7,30.5,2.3,111
2020-02-20 17:40:04,17.0,-22.0,39.1,29.3,2.3,112
2020-02-20 17:45:04,17.0,-22.0,39.0,27.1,2.3,111
2020-02-20 17:50:04,17.0,-21.6,38.6,23.7,2.3,112
2020-02-20 17:55:05,17.0,-21.3,38.4,18.0,2.3,111
2020-02-20 18:00:05,16.7,-15.7,32.4,10.9,2.3,112
2020-02-20 18:05:05,17.1,-11.0,28.1,6.6,2.3,111
2020-02-20 18:10:05,17.1,-14.6,31.7,3.9,2.3,112
2020-02-20 18:15:05,17.1,-18.1,35.2,2.1,2.3,111
2020-02-20 18:20:05,17.1,-21.8,38.9,1.0,2.3,111
2020-02-20 18:25:05,17.1,-21.9,38.9,0.4,2.3,112
2020-02-20 18:30:05,17.0,-21.9,39.0,0.2,2.3,111
2020-02-20 18:35:05,17.0,-22.1,39.1,0.1,2.3,112
2020-02-20 18:40:05,16.8,-22.0,38.7,0.0,2.3,111
2020-02-20 18:45:05,16.9,-22.1,39.0,0.0,2.3,111
2020-02-20 18:50:05,16.9,-22.2,39.1,0.0,2.3,112
2020-02-20 18:55:05,16.9,-22.2,39.1,0.0,2.3,112
2020-02-20 19:00:05,16.9,-22.0,39.0,0.0,2.3,111
2020-02-20 19:05:05,16.9,-21.9,38.8,0.0,2.3,111
2020-02-20 19:10:05,16.9,-22.3,39.2,0.0,2.3,112
2020-02-20 19:15:05,16.8,-22.2,38.9,0.0,2.3,111
2020-02-20 19:20:05,16.8,-22.3,39.1,0.0,2.3,112
2020-02-20 19:25:05,16.7,-22.3,39.0,0.0,2.3,111
2020-02-20 19:30:05,16.7,-22.5,39.2,0.0,2.3,112
2020-02-20 19:35:05,16.6,-22.2,38.8,0.0,2.3,111
2020-02-20 19:40:05,16.6,-22.4,39.0,0.0,2.3,111
2020-02-20 19:45:05,16.6,-22.3,38.9,0.0,2.3,112
2020-02-20 19:50:05,16.5,-22.4,38.9,0.0,2.3,112
2020-02-20 19:55:05,16.5,-22.9,39.4,0.0,2.3,111
2020-02-20 20:00:03,16.5,-22.8,39.3,0.0,2.3,22
2020-02-20 20:05:03,16.4,-22.8,39.2,0.0,2.3,111
2020-02-20 20:10:03,16.3,-22.9,39.2,0.0,2.3,112
2020-02-20 20:15:03,16.4,-22.9,39.3,0.0,2.3,112
2020-02-20 20:20:03,16.2,-23.0,39.2,0.0,2.3,111
2020-02-20 20:25:03,15.6,-23.1,38.7,0.0,2.3,111
2020-02-20 20:30:03,15.7,-22.7,38.4,0.0,2.3,112
2020-02-20 20:35:03,15.7,-22.6,38.3,0.0,2.3,111
2020-02-20 20:40:03,15.7,-22.7,38.5,0.0,2.3,112
2020-02-20 20:45:03,15.7,-22.3,38.1,0.0,2.3,112
2020-02-20 20:50:03,15.7,-22.3,38.0,0.0,2.3,111
2020-02-20 20:55:03,15.7,-22.0,37.7,0.0,2.3,111
2020-02-20 21:00:03,16.1,-22.2,38.3,0.0,2.3,112
2020-02-20 21:05:03,16.2,-22.4,38.5,0.0,2.3,111
2020-02-20 21:10:03,16.1,-22.2,38.3,0.0,2.3,112
2020-02-20 21:15:03,16.0,-21.5,37.5,0.0,2.3,112
2020-02-20 21:20:03,15.6,-21.4,37.0,0.0,2.3,112
2020-02-20 21:25:03,15.4,-22.0,37.5,0.0,2.3,111
2020-02-20 21:30:03,15.3,-21.8,37.1,0.0,2.3,112
2020-02-20 21:35:03,15.4,-21.6,37.1,0.0,2.3,111
2020-02-20 21:40:03,15.6,-20.9,36.6,0.0,2.3,112
2020-02-20 21:45:03,15.7,-20.1,35.8,0.0,2.3,111
2020-02-20 21:50:03,15.8,-20.1,36.0,0.0,2.3,112
2020-02-20 21:55:03,15.9,-20.1,36.0,0.0,2.3,112
2020-02-20 22:00:03,15.9,-19.4,35.4,0.0,2.3,111
2020-02-20 22:05:03,15.9,-20.6,36.4,0.0,2.3,112
2020-02-20 22:10:03,15.4,-21.6,37.0,0.0,2.3,112
2020-02-20 22:15:03,15.2,-21.5,36.8,0.0,2.3,112
2020-02-20 22:20:03,15.2,-21.4,36.6,0.0,2.3,112
2020-02-20 22:25:03,15.5,-21.4,36.9,0.0,2.3,111
2020-02-20 22:30:03,15.6,-21.7,37.3,0.0,2.3,112
2020-02-20 22:35:03,15.6,-22.0,37.6,0.0,2.3,111
2020-02-20 22:40:03,15.6,-21.8,37.4,0.0,2.3,112
2020-02-20 22:45:03,15.6,-21.7,37.3,0.0,2.3,111
2020-02-20 22:50:03,15.6,-21.7,37.3,0.0,2.3,112
2020-02-20 22:55:03,15.6,-21.6,37.2,0.0,2.3,111
2020-02-20 23:00:03,15.7,-21.2,37.0,0.0,2.3,111
2020-02-20 23:05:03,15.8,-21.0,36.8,0.0,2.3,112
2020-02-20 23:10:03,15.8,-21.3,37.1,0.0,2.3,112
2020-02-20 23:15:03,15.8,-21.3,37.1,0.0,2.3,111
2020-02-20 23:20:03,15.9,-21.3,37.2,0.0,2.3,112
2020-02-20 23:25:03,15.9,-20.9,36.8,0.0,2.3,112
2020-02-20 23:30:03,15.9,-20.4,36.4,0.0,2.3,111
2020-02-20 23:35:03,15.9,-20.4,36.3,0.0,2.3,112
2020-02-20 23:40:03,15.9,-20.5,36.4,0.0,2.3,112
2020-02-20 23:45:03,15.9,-20.8,36.8,0.0,2.3,111
2020-02-20 23:50:03,16.0,-20.5,36.5,0.0,2.3,112
2020-02-20 23:55:03,16.1,-20.4,36.4,0.0,2.3,111
